Weather History for Parkersburg, WV

Change the Weather History Date:

Sunday, March 3, 2013

  Actual Average Record
Temperature  
Mean Temperature 27 °F 39 °F  
Max Temperature 29 °F 49 °F 79 °F (1974)
Min Temperature 25 °F 29 °F -5 °F (1980)
Degree Days  
Heating Degree Days 38 26  
Month to date heating degree days 107 79  
Since 1 July heating degree days 3843 3869  
Cooling Degree Days 0 0  
Month to date cooling degree days 0 0  
Year to date cooling degree days 0 0  
Moisture  
Dew Point 19 °F    
Average Humidity 72    
Maximum Humidity 81    
Minimum Humidity 63    
Precipitation  
Precipitation T in 0.10 in 0.05 in (2004)
Month to date precipitation 0.01 0.31  
Year to date precipitation 5.03 5.96  
Sea Level Pressure  
Sea Level Pressure 30.05 in    
Wind  
Wind Speed 7 mph (WNW)    
Max Wind Speed 17 mph    
Max Gust Speed 22 mph    
Visibility 8 miles    
Events Snow    
T = Trace of Precipitation, MM = Missing Value Source: NWS Daily Summary

Daily Weather History Graph

Daily Weather History Graph

Search for Another Location

Airport:

Trip Planner

Search our weather history database for the weather conditions in past years. The results will help you decide how hot, cold, wet, or windy it might be!

Date:

Astronomy

Mar. 03, 2013 Rise Set
Actual Time 6:55 AM EST 6:20 PM EST
Civil Twilight 6:28 AM EST 6:47 PM EST
Nautical Twilight 5:57 AM EST 7:18 PM EST
Astronomical Twilight 5:26 AM EST 7:49 PM EST
Moon No Moon Rise 10:11 AM EST (3/3)
Length of Visible Light 12h 19m
Length of Day
11h 25m
Waning Gibbous, 64% of the Moon is Illuminated
Mar 3
Waning Gibbous
Mar 4
Last Quarter
Mar 11
New
Mar 19
First Quarter
Mar 27
Full

Hourly Weather History & Observations

Time (EST) Temp. Windchill Dew Point Humidity Pressure Visibility Wind Dir Wind Speed Gust Speed Precip Events Conditions
12:02 AM 26.6 °F 20.0 °F 21.2 °F 80% 30.02 in 10.0 mi WNW 5.8 mph - N/A   Overcast
12:23 AM 26.6 °F 19.1 °F 21.2 °F 80% 30.02 in 7.0 mi WNW 6.9 mph - N/A   Overcast
12:53 AM 27.0 °F 19.5 °F 21.9 °F 81% 30.05 in 5.0 mi West 6.9 mph - 0.00 in Snow Light Snow
1:22 AM 26.6 °F 21.2 °F 21.2 °F 80% 30.03 in 7.0 mi WNW 4.6 mph - 0.00 in   Overcast
1:53 AM 26.1 °F 19.4 °F 21.9 °F 84% 30.05 in 8.0 mi WNW 5.8 mph - 0.00 in   Overcast
2:29 AM 26.6 °F 19.1 °F 21.2 °F 80% 30.02 in 8.0 mi West 6.9 mph - N/A   Overcast
2:53 AM 26.1 °F 18.4 °F 21.0 °F 81% 30.04 in 6.0 mi West 6.9 mph - 0.00 in Snow Light Snow
3:53 AM 26.1 °F 16.8 °F 21.0 °F 81% 30.04 in 6.0 mi West 9.2 mph - 0.00 in   Haze
4:29 AM 26.6 °F 19.1 °F 21.2 °F 80% 30.01 in 2.5 mi WNW 6.9 mph - 0.00 in Snow Light Snow
4:41 AM 26.6 °F 19.1 °F 21.2 °F 80% 30.01 in 4.0 mi WNW 6.9 mph - 0.00 in Snow Light Snow
4:53 AM 26.1 °F 18.4 °F 21.0 °F 81% 30.04 in 3.0 mi WNW 6.9 mph - 0.00 in Snow Light Snow
5:53 AM 26.1 °F 18.4 °F 21.0 °F 81% 30.04 in 9.0 mi WNW 6.9 mph - 0.00 in   Overcast
7:53 AM 25.0 °F 17.1 °F 19.9 °F 81% 30.06 in 9.0 mi West 6.9 mph - N/A   Overcast
8:41 AM 26.6 °F 18.2 °F 19.4 °F 74% 30.03 in 8.0 mi WNW 8.1 mph - N/A   Overcast
8:53 AM 26.1 °F 17.6 °F 19.9 °F 78% 30.06 in 9.0 mi West 8.1 mph - N/A   Overcast
9:01 AM 26.6 °F 19.1 °F 19.4 °F 74% 30.04 in 8.0 mi WNW 6.9 mph - N/A   Overcast
9:30 AM 26.6 °F 16.8 °F 19.4 °F 74% 30.04 in 8.0 mi WNW 10.4 mph - N/A   Overcast
9:53 AM 27.0 °F 17.3 °F 18.0 °F 69% 30.07 in 9.0 mi WNW 10.4 mph - N/A   Overcast
10:39 AM 26.6 °F 17.5 °F 19.4 °F 74% 30.03 in 9.0 mi WNW 9.2 mph - N/A   Overcast
10:53 AM 27.0 °F 17.3 °F 19.0 °F 72% 30.06 in 8.0 mi NW 10.4 mph - N/A   Overcast
11:22 AM 26.6 °F 16.8 °F 19.4 °F 74% 30.03 in 4.0 mi WNW 10.4 mph - 0.00 in Snow Light Snow
11:37 AM 26.6 °F 17.5 °F 19.4 °F 74% 30.03 in 7.0 mi NW 9.2 mph - 0.00 in   Overcast
11:53 AM 27.0 °F 17.3 °F 17.1 °F 66% 30.06 in 10.0 mi West 10.4 mph 16.1 mph 0.00 in   Overcast
12:20 PM 28.4 °F 18.0 °F 15.8 °F 59% 30.03 in 10.0 mi WNW 12.7 mph 20.7 mph N/A   Overcast
12:53 PM 28.0 °F 18.1 °F 17.1 °F 63% 30.05 in 10.0 mi WNW 11.5 mph - N/A   Overcast
1:07 PM 28.4 °F 17.5 °F 17.6 °F 64% 30.01 in 10.0 mi West 13.8 mph 20.7 mph N/A   Overcast
1:41 PM 26.6 °F 16.2 °F 17.6 °F 69% 30.01 in 10.0 mi West 11.5 mph 19.6 mph N/A   Overcast
1:53 PM 27.0 °F 18.7 °F 17.1 °F 66% 30.04 in 9.0 mi WNW 8.1 mph - N/A   Overcast
2:53 PM 26.1 °F 16.2 °F 18.0 °F 71% 30.05 in 5.0 mi West 10.4 mph 19.6 mph 0.00 in Snow Light Snow
3:40 PM 26.6 °F 19.1 °F 15.8 °F 64% 30.02 in 10.0 mi WNW 6.9 mph - 0.00 in   Overcast
3:53 PM 27.0 °F 18.7 °F 15.1 °F 61% 30.05 in 10.0 mi WNW 8.1 mph - 0.00 in   Overcast
4:53 PM 27.0 °F 18.7 °F 15.1 °F 61% 30.06 in 10.0 mi WSW 8.1 mph - N/A   Overcast
5:53 PM 27.0 °F 20.5 °F 15.1 °F 61% 30.06 in 10.0 mi West 5.8 mph - N/A   Overcast
6:53 PM 27.0 °F 23.0 °F 15.1 °F 61% 30.07 in 10.0 mi WNW 3.5 mph - N/A   Overcast
7:53 PM 27.0 °F 20.5 °F 16.0 °F 63% 30.09 in 9.0 mi NW 5.8 mph - 0.00 in Snow Light Snow
8:53 PM 27.0 °F 23.0 °F 17.1 °F 66% 30.10 in 10.0 mi NW 3.5 mph - 0.00 in   Mostly Cloudy
9:53 PM 26.1 °F 21.9 °F 16.0 °F 66% 30.10 in 10.0 mi NW 3.5 mph - N/A   Overcast
10:53 PM 26.1 °F - 16.0 °F 66% 30.11 in 10.0 mi Calm Calm - N/A   Overcast
11:53 PM 25.0 °F - 16.0 °F 69% 30.11 in 10.0 mi Calm Calm - N/A   Overcast